Satellite: METEOR-M Catalog number: 35865 Epoch time: 11188.55899087 Element set: 525 Inclination: 098.7042 deg RA of node: 243.4228 deg Eccentricity: 0.0002277 Arg of perigee: 353.6303 deg Mean anomaly: 006.4845 deg Mean motion: 14.21840356 rev/day Decay rate: 1.76e-06 rev/day^2 Epoch rev: 9348 Checksum: 314
Satellite: RS-38 Catalog number: 35869 Epoch time: 11188.48619085 Element set: 519 Inclination: 098.7011 deg RA of node: 243.3854 deg Eccentricity: 0.0004464 Arg of perigee: 344.1071 deg Mean anomaly: 015.9966 deg Mean motion: 14.22015879 rev/day Decay rate: 1.77e-06 rev/day^2 Epoch rev: 9348 Checksum: 334
/EX
participants (1)
-
Ray Hoad